Regional Weather Roundup
Issued by NWS Kansas City/Pleasant Hill, MO

Home | Current Version | Previous Version | Graphics & Text | Print | Product List | Glossary Off
Versions: 1 2 3 4 5 6 7 8 9 10 11 12 13 14 15 16 17 18 19 20 21 22 23 24 25 26 27

000
ASUS43 KEAX 191910
RWREAX

WEATHER ROUNDUP FOR EASTERN KANSAS AND NORTHWEST MISSOURI
NATIONAL WEATHER SERVICE KANSAS CITY/PLEASANT HILL MO
200 PM CDT SAT AUG 19 2017

KSZ040-057-103>105-MOZ028-029-037-043-192000-
...KANSAS CITY METROPOLITAN AREA...

CITY           SKY/WX    TMP DP  RH WIND       PRES   REMARKS
K.C. INTL      SUNNY     88  66  48 CALM      29.97F HX  90
K.C. DOWNTOWN  SUNNY     90  66  45 W5        29.95F HX  92
LEES SUMMIT    SUNNY     89  68  49 NE3       29.98S HX  93
OLATHE - IXD   SUNNY     90  65  43 E3        29.97F HX  92
OLATHE - OJC   SUNNY     88  67  49 S5        29.97F HX  91
LAWRENCE       SUNNY     89  70  53 VRB3      29.95F HX  94

$$

MOZ001>008-011>017-020>025-030>033-038>040-044>046-053-054-192000-
...NORTHERN AND CENTRAL MISSOURI...

CITY           SKY/WX    TMP DP  RH WIND       PRES   REMARKS
ST. JOSEPH     SUNNY     89  68  49 NW3       29.95F HX  93
WARRENSBURG    SUNNY     86  68  54 CALM      29.97S
WHITEMAN AFB   SUNNY     87  71  58 NW3       29.96F HX  93
CLINTON        SUNNY     90  72  55 CALM      29.97F HX  96
SEDALIA        SUNNY     89  73  59 VRB5      29.98F HX  97
WARSAW         NOT AVBL
CHILLICOTHE      N/A     90  60  36 VRB3      29.96S
KIRKSVILLE     SUNNY     91  52  26 W12       29.95F

$$

MOZ041-047>049-056>058-063>065-088>090-097-192000-
...EASTERN AND SOUTHERN MISSOURI...

CITY           SKY/WX    TMP DP  RH WIND       PRES   REMARKS
ST. LOUIS INTL MOSUNNY   89  67  47 W8        29.96S HX  92
SPIRIT OF STL  MOSUNNY   89  70  53 W7        29.94F HX  94
COLUMBIA       SUNNY     88  70  55 W10       29.97S HX  93
JEFFERSON CITY SUNNY     88  72  58 CALM      29.95F HX  94
ROLLA          SUNNY     88  72  58 SW8       29.99F HX  94
OSAGE BEACH    SUNNY     88  72  58 VRB6      29.98F HX  94
SPRINGFIELD    MOSUNNY   89  75  63 W6        29.99F HX  99
BRANSON        MOSUNNY   90  73  58 NW8       30.02F HX  98
JOPLIN         MOSUNNY   92  77  61 SW10      29.97F HX 105
WEST PLAINS    PTSUNNY   90  70  51 N7        30.00F HX  95

$$

IAZ060-094-KSZ022-034>040-054-083-096-NEZ052-066-093-192000-
...KANSAS...SOUTHEAST NEBRASKA AND IOWA...

CITY           SKY/WX    TMP DP  RH WIND       PRES   REMARKS
TOPEKA         SUNNY     91  71  51 E6        29.95F HX  97
MANHATTAN      SUNNY     91  72  53 E9        29.93F HX  98
EMPORIA        SUNNY     90  74  59 SE9       29.95F HX  99
CHANUTE        SUNNY     93  75  55 S6        29.95F HX 104
WICHITA        MOSUNNY   96  73  47 S12       29.92F HX 105
OMAHA          SUNNY     86  55  34 CALM      29.94F
LINCOLN        SUNNY     85  63  47 SE9       29.95F
FALLS CITY     SUNNY     85  64  49 SE8       29.95F
LAMONI         SUNNY     87  57  35 VRB7      29.96F
DES MOINES     MOSUNNY   81  63  54 SE6       29.95S

$$





USA.gov is the U.S. government's official web portal to all federal, state and local government web resources and services.